Kentucky Lake Weather Center

Moon Phase Calendar



Kentucky Lake Water Level
Online Cameras

 


      

Current Conditions in Paris
11/30/2021 8:57:13 PM

44°F
Feels Like 44
Clouds
Humidity
81%
Pressure
30.12"
Wind
2.8 mph (SE)
Dew Point
39°F
UV Index
0/10 (Low)
Visibility
6 mi

Hourly Forecast

Date & Time Tue, Nov 30
8:00 PM
Tue, Nov 30
9:00 PM
Tue, Nov 30
10:00 PM
Tue, Nov 30
11:00 PM
Wed, Dec 1
12:00 AM
Wed, Dec 1
1:00 AM
Wed, Dec 1
2:00 AM
Wed, Dec 1
3:00 AM
Wed, Dec 1
4:00 AM
Wed, Dec 1
5:00 AM
Wed, Dec 1
6:00 AM
Wed, Dec 1
7:00 AM
Wed, Dec 1
8:00 AM
Wed, Dec 1
9:00 AM
Wed, Dec 1
10:00 AM
Wed, Dec 1
11:00 AM
Wed, Dec 1
12:00 PM
Wed, Dec 1
1:00 PM
Wed, Dec 1
2:00 PM
Wed, Dec 1
3:00 PM
Wed, Dec 1
4:00 PM
Wed, Dec 1
5:00 PM
Wed, Dec 1
6:00 PM
Wed, Dec 1
7:00 PM
Wed, Dec 1
8:00 PM
Wed, Dec 1
9:00 PM
Wed, Dec 1
10:00 PM
Wed, Dec 1
11:00 PM
Thu, Dec 2
12:00 AM
Thu, Dec 2
1:00 AM
Thu, Dec 2
2:00 AM
Thu, Dec 2
3:00 AM
Thu, Dec 2
4:00 AM
Thu, Dec 2
5:00 AM
Thu, Dec 2
6:00 AM
Thu, Dec 2
7:00 AM
Thu, Dec 2
8:00 AM
Thu, Dec 2
9:00 AM
Thu, Dec 2
10:00 AM
Thu, Dec 2
11:00 AM
Thu, Dec 2
12:00 PM
Thu, Dec 2
1:00 PM
Thu, Dec 2
2:00 PM
Thu, Dec 2
3:00 PM
Thu, Dec 2
4:00 PM
Thu, Dec 2
5:00 PM
Thu, Dec 2
6:00 PM
Thu, Dec 2
7:00 PM
Condition
Clouds

Clouds

Clouds

Clouds

Clouds

Clouds

Clouds

Clouds

Clouds

Clouds

Clouds

Clouds

Clouds

Clouds

Clouds

Clouds

Clouds

Clouds

Clouds

Clouds

Clouds

Clouds

Clouds

Clouds

Clouds

Clouds

Clouds

Clouds

Clouds

Clouds

Clouds

Clouds

Clear

Clear

Clear

Clear

Clear

Clear

Clear

Clear

Clear

Clear

Clear

Clear

Clear

Clear

Clear

Clear
Temperature 45°F44°F45°F45°F46°F46°F46°F46°F46°F47°F46°F47°F50°F53°F56°F59°F59°F61°F61°F60°F59°F55°F54°F54°F53°F52°F52°F51°F51°F50°F50°F49°F49°F48°F48°F48°F51°F56°F60°F64°F66°F68°F68°F67°F64°F58°F57°F55°F
Feels Like 45°F44°F45°F44°F44°F44°F43°F43°F44°F44°F43°F43°F46°F52°F54°F58°F58°F60°F60°F59°F58°F54°F53°F53°F53°F52°F51°F50°F50°F49°F47°F46°F46°F45°F45°F45°F50°F55°F59°F62°F64°F66°F67°F66°F62°F57°F55°F54°F
Cloudiness 51%47%45%41%43%76%54%66%75%80%83%100%100%100%100%100%100%100%100%100%76%61%58%49%47%37%30%26%30%28%16%13%10%9%8%5%3%3%3%4%4%5%2%1%1%1%1%0%
Visibility 6 mi6 mi6 mi6 mi6 mi6 mi6 mi6 mi6 mi6 mi6 mi6 mi6 mi6 mi6 mi6 mi6 mi6 mi6 mi6 mi6 mi6 mi6 mi6 mi6 mi6 mi6 mi6 mi6 mi6 mi6 mi6 mi6 mi6 mi6 mi6 mi6 mi6 mi6 mi6 mi6 mi6 mi6 mi6 mi6 mi6 mi6 mi6 mi
Precipitation 0%0%0%0%0%0%0%0%0%0%0%0%0%0%0%0%0%11%12%12%12%10%7%0%0%0%0%0%0%0%0%0%0%0%0%0%0%0%0%0%0%0%0%0%0%0%0%0%
Humidity 80%81%81%82%83%85%88%88%88%86%89%90%87%79%75%67%69%65%67%71%74%85%88%89%91%92%93%93%94%94%94%94%94%94%94%94%86%73%60%51%46%44%45%48%53%64%68%70%
Dew Point 40°F39°F40°F40°F41°F42°F42°F42°F42°F43°F43°F44°F46°F47°F48°F48°F49°F49°F50°F51°F51°F51°F51°F51°F50°F50°F50°F49°F49°F48°F48°F47°F47°F47°F46°F46°F47°F47°F46°F45°F45°F45°F46°F46°F46°F46°F46°F46°F
Pressure 30.12"30.12"30.12"30.12"30.12"30.09"30.09"30.09"30.09"30.09"30.09"30.06"30.06"30.06"30.06"30.03"30.03"30"29.97"29.97"30"30"30.03"30.03"30.03"30.03"30.03"30.03"30.03"30.03"30.03"30.03"30.03"30.03"30.06"30.06"30.09"30.09"30.09"30.06"30.03"30"30"30"30"30.03"30.03"30.06"
Wind Speed 2.7 mph2.8 mph2.7 mph3.1 mph4 mph4.2 mph5.2 mph4.6 mph4.2 mph5.4 mph7 mph8.6 mph9.6 mph10 mph11 mph13.9 mph11.4 mph12.2 mph10.4 mph11 mph9.9 mph6.4 mph5.9 mph5.7 mph6.3 mph6.3 mph6.2 mph6.2 mph6.6 mph6.3 mph6.6 mph6.6 mph6.5 mph6.6 mph6.8 mph6.6 mph7.7 mph9.8 mph10.7 mph11.4 mph12.3 mph12.8 mph11.6 mph10.7 mph9.1 mph7.3 mph7.1 mph6.8 mph
Wind
Direction
116°
ESE
131°
SE
126°
SE
133°
SE
143°
SE
153°
SSE
158°
SSE
166°
SSE
190°
S
176°
S
170°
S
180°
S
192°
SSW
204°
SSW
210°
SSW
216°
SW
228°
SW
237°
WSW
221°
SW
220°
SW
226°
SW
210°
SSW
212°
SSW
213°
SSW
207°
SSW
217°
SW
215°
SW
219°
SW
220°
SW
227°
SW
220°
SW
228°
SW
234°
SW
230°
SW
228°
SW
225°
SW
229°
SW
238°
WSW
241°
WSW
242°
WSW
239°
WSW
240°
WSW
241°
WSW
239°
WSW
234°
SW
231°
SW
227°
SW
228°
SW

Daily Forecast

Date High Low Precip. Humidity
Today
Nov 30

Clouds
62 °F
41 °F
0%
55%
Wednesday
Dec 1

Clouds
61 °F
46 °F
12%
67%
Thursday
Dec 2

Clear
67 °F
48 °F
0%
51%
Friday
Dec 3

Clear
67 °F
49 °F
0%
49%
Saturday
Dec 4

Clouds
65 °F
52 °F
0%
58%
Sunday
Dec 5

Rain
65 °F
57 °F
100%
68%
Monday
Dec 6

Rain
61 °F
36 °F
100%
37%
Tuesday
Dec 7

Rain
63 °F
34 °F
100%
62%
Wednesday
Dec 8

Rain
65 °F
54 °F
100%
93%
Thursday
Dec 9

Rain
53 °F
45 °F
100%
79%
Friday
Dec 10

Clouds
64 °F
48 °F
0%
63%
Saturday
Dec 11

Rain
67 °F
54 °F
64%
88%
Sunday
Dec 12

Rain
71 °F
65 °F
49%
88%
Monday
Dec 13

Clouds
75 °F
64 °F
1%
69%
Tuesday
Dec 14

Rain
73 °F
60 °F
20%
57%
Wednesday
Dec 15

Rain
66 °F
57 °F
100%
94%

Temperature 8-14 Day Outlook



Precipitation 8-14 Day Outlook




Quick Links
Kentucky Lake News
Kentucky Lake Photos
Kentucky Lake Videos




About Us
Contact Us
Site Map
Search Site
Advertise With Us
   
www.GoKentuckyLake.com
THE KENTUCKY LAKE WEBSITE

Copyright 2021, Lakes Online
Privacy    |    Legal